[[{"header":{"parameterUnit":"m.s-1","parameterCategory":1,"la1":30.2991,"la2":30.254,"lo1":-89.0895,"lo2":-89.0444,"dy":0.0017,"dx":0.0017,"nx":28,"ny":28,"refTime":"2024-12-05T03:00:00:Z","depth":0,"parameterNumber":2,"parameterNumberName":"U-component_of_WINDS"},"data":[0,0,0,0,0,0,0,0,0,0,0,0,0,0,0,0,0,0,0,0,0,0,0,0,0,0,0,0,0,0,0,0,0,0,0,0,0,0,0,0,0,0,0,0,0,0,0,0,0,0,0,0,0,0,0,0,0,0,-0.9882,-0.9882,0,-0.9802,-0.9801,-0.98,-0.9757,-0.9757,-0.9757,-0.9757,-0.9673,-0.9671,-0.9669,0,0,0,0,0,0,0,0,0,0,0,0,0,-0.9996,-0.9994,-0.9883,-0.9882,-0.9881,-0.9802,-0.9801,-0.98,-0.9757,-0.9757,-0.9757,-0.9757,-0.9674,-0.9671,-0.9669,0,0,0,0,0,0,0,0,0,0,0,0,0,-0.9935,-0.9994,-0.9883,-0.985,-0.9846,-0.9803,-0.9801,-0.98,-0.9757,-0.9757,-0.9757,-0.9757,-0.9675,-0.9671,-0.9668,-0.9651,0,0,-0.9658,-0.9657,0,0,0,0,0,0,0,0,-0.9938,-0.993,-0.9856,-0.9852,-0.9848,-0.979,-0.9811,-0.975,-0.9757,-0.9791,-0.9757,-0.9757,-0.9712,-0.9706,-0.9691,-0.9647,-0.9644,-0.9658,-0.9656,-0.9655,-0.9654,0,0,0,0,0,0,0,-0.9942,-0.9934,-0.9851,-0.9854,-0.985,-0.9838,-0.9829,-0.9799,-0.9753,-0.9788,-0.9785,-0.9776,-0.971,-0.9694,-0.9688,-0.9642,-0.9658,-0.9655,-0.9653,-0.9652,-0.9579,-0.9579,0,0,0,0,0,0,-0.9952,-0.9937,-0.9853,-0.9848,-0.9893,-0.9836,-0.9826,-0.9808,-0.9753,-0.9745,-0.9776,-0.9774,-0.97,-0.9692,-0.9685,-0.9661,-0.9655,-0.9652,-0.965,-0.9579,-0.9579,-0.9579,0,0,0,0,0,0,-0.9955,-0.9945,-0.9856,-0.9892,-0.988,-0.9834,-0.9815,-0.9807,-0.9791,-0.9744,-0.9736,-0.9769,-0.9699,-0.969,-0.966,-0.9657,-0.965,-0.9647,-0.9579,-0.9579,-0.9579,-0.9612,0,0,0,0,0,0,-0.9958,-0.9946,-0.994,-0.9892,-0.9878,-0.9833,-0.9815,-0.9805,-0.9786,-0.9783,-0.9735,-0.9727,-0.9698,-0.9665,-0.9657,-0.9653,-0.9645,-0.9579,-0.9579,-0.9579,-0.9611,-0.9613,-0.9615,0,0,0,0,0,-0.9963,-0.9952,-0.994,-0.993,-0.9869,-0.9833,-0.9825,-0.9793,-0.9786,-0.9779,-0.9748,-0.9728,-0.9659,-0.9662,-0.9653,-0.9648,-0.9579,-0.9579,-0.9579,-0.961,-0.9613,-0.9615,0,0,0,0,0,0,-1.0001,-0.9946,-0.9931,-0.9905,-0.9874,-0.9826,-0.9816,-0.9797,-0.9767,-0.9765,-0.9725,-0.9715,-0.9688,-0.9665,-0.9669,-0.9627,-0.9617,-0.9615,-0.9644,-0.9646,-0.9648,-0.9654,-0.9642,0,0,0,0,0,-1.0007,-0.9982,-0.9935,-0.9917,-0.9902,-0.9862,-0.9845,-0.9823,-0.9789,-0.9775,-0.9743,-0.971,-0.968,-0.9662,-0.9632,-0.9608,-0.9596,-0.9599,-0.9602,-0.9603,-0.9602,-0.9586,-0.9587,-0.9579,-0.9579,-0.9579,0,0,-1.0018,-0.9984,-0.9972,-0.9924,-0.9897,-0.9872,-0.9851,-0.9826,-0.9807,-0.9771,-0.9741,-0.9716,-0.9676,-0.9649,-0.9635,-0.9628,-0.9602,-0.9603,-0.9605,-0.9603,-0.9586,-0.9587,-0.9588,-0.9579,-0.9579,-0.9579,0,0,-1.0025,-0.9998,-0.9979,-0.9953,-0.9913,-0.9886,-0.9882,-0.9836,-0.9818,-0.9787,-0.9759,-0.9735,-0.9686,-0.9659,-0.9639,-0.9635,-0.9615,-0.9626,-0.9637,-0.9622,-0.9622,-0.9622,-0.962,-0.962,-0.9625,-0.9625,-0.9625,0,-1.0044,-1.0006,-0.9972,-0.9948,-0.9927,-0.9894,-0.9874,-0.985,-0.9803,-0.9789,-0.9782,-0.9719,-0.969,-0.9655,-0.9654,-0.9639,-0.9632,-0.9631,-0.9625,-0.9625,-0.9625,-0.9622,-0.9621,-0.9627,-0.9627,-0.9626,-0.9626,0,-1.003,-1.0004,-0.9994,-0.9949,-0.9927,-0.9905,-0.9867,-0.9849,-0.9828,-0.9802,-0.977,-0.9734,-0.9697,-0.9687,-0.9667,-0.9648,-0.9646,-0.9633,-0.9621,-0.9627,-0.9624,-0.9623,-0.9629,-0.9628,-0.9628,-0.9628,0,0,-1.006,-0.9996,-0.9993,-0.9971,-0.9924,-0.9903,-0.9879,-0.9843,-0.9827,-0.9795,-0.9774,-0.9732,-0.972,-0.9697,-0.9673,-0.966,-0.9658,-0.9648,-0.9646,-0.965,-0.9634,-0.9644,-0.9644,-0.9644,-0.9644,-0.9644,-0.9637,0,-1.006,-1.0017,-0.9985,-0.9953,-0.9928,-0.9896,-0.9875,-0.9843,-0.9818,-0.9792,-0.9764,-0.9735,-0.9721,-0.9706,-0.9692,-0.9661,-0.9654,-0.9661,-0.9623,-0.9622,-0.9634,-0.9642,-0.9652,-0.9648,-0.9636,-0.9636,-0.9636,0,-1.0055,-1.0024,-0.999,-0.9944,-0.9932,-0.9914,-0.9878,-0.9854,-0.9817,-0.9799,-0.9773,-0.9749,-0.9721,-0.9713,-0.9674,-0.9679,-0.9662,-0.9644,-0.9643,-0.9638,-0.9629,-0.9637,-0.9646,-0.9646,-0.9634,-0.9634,-0.9634,0,-1.0079,-1.0029,-1.0001,-0.9984,-0.9931,-0.9919,-0.9896,-0.9859,-0.9838,-0.9806,-0.9792,-0.9757,-0.9738,-0.9711,-0.9677,-0.9674,-0.9641,-0.963,-0.9625,-0.9625,-0.9619,-0.962,-0.9625,-0.9609,-0.9609,-0.9609,-0.9609,0,-1.0082,-1.0062,-1.0011,-0.9995,-0.9971,-0.9934,-0.9912,-0.9886,-0.9853,-0.983,-0.98,-0.9779,-0.9736,-0.9709,-0.9683,-0.9654,-0.9645,-0.963,-0.9623,-0.9632,-0.9634,-0.962,-0.9619,-0.9608,-0.9609,-0.9609,-0.9609,0,-1.0105,-1.0071,-1.0039,-0.999,-0.9978,-0.9962,-0.9921,-0.9903,-0.9875,-0.9846,-0.9837,-0.9794,-0.9761,-0.9725,-0.968,-0.9662,-0.9634,-0.9625,-0.9647,-0.9643,-0.964,-0.964,-0.9636,-0.9633,-0.9619,-0.9619,-0.962,0,-1.011,-1.0093,-1.0043,-1.0026,-1.0004,-0.9976,-0.9955,-0.9918,-0.9897,-0.9853,-0.984,-0.9805,-0.9775,-0.9724,-0.9688,-0.9653,-0.9642,-0.9642,-0.9636,-0.9646,-0.9641,-0.9642,-0.964,-0.9644,-0.9645,-0.9645,-0.9645,0,-1.012,-1.0104,-1.0075,-1.0039,-1.0015,-0.9986,-0.9955,-0.9942,-0.9899,-0.9877,-0.9843,-0.9819,-0.9773,-0.9738,-0.9698,-0.9674,-0.9652,-0.9648,-0.9644,-0.9653,-0.9667,-0.9659,-0.9652,-0.9648,-0.9647,-0.9647,-0.9647,-0.9647,-1.0134,-1.0117,-1.0079,-1.0048,-1.002,-0.9992,-0.9972,-0.9942,-0.9914,-0.9873,-0.9853,-0.9819,-0.9781,-0.9726,-0.9702,-0.9674,-0.9667,-0.9663,-0.9662,-0.9661,-0.9663,-0.9672,-0.9667,-0.9667,-0.9667,-0.9666,-0.9666,0,-1.0142,-1.0116,-1.0087,-1.0045,-1.002,-1.0002,-0.9966,-0.9946,-0.9917,-0.9883,-0.9854,-0.9815,-0.978,-0.9742,-0.9705,-0.969,-0.9679,-0.9682,-0.9682,-0.9676,-0.9672,-0.9678,-0.9691,-0.9691,-0.9691,-0.9691,-0.9691,-0.9691,-1.0144,-1.0115,-1.0094,-1.0051,-1.0024,-0.9991,-0.9972,-0.9945,-0.9918,-0.9876,-0.9847,-0.9822,-0.9786,-0.9747,-0.9714,-0.9703,-0.9691,-0.9696,-0.9683,-0.9679,-0.9677,-0.9675,-0.9681,-0.9694,-0.9694,-0.969,-0.969,-0.969]},{"header":{"parameterUnit":"m.s-1","parameterCategory":1,"la1":30.2991,"la2":30.254,"lo1":-89.0895,"lo2":-89.0444,"dy":0.0017,"dx":0.0017,"nx":28,"ny":28,"refTime":"2024-12-05T03:00:00:Z","depth":0,"parameterNumber":3,"parameterNumberName":"V-component_of_WINDS"},"data":[0,0,0,0,0,0,0,0,0,0,0,0,0,0,0,0,0,0,0,0,0,0,0,0,0,0,0,0,0,0,0,0,0,0,0,0,0,0,0,0,0,0,0,0,0,0,0,0,0,0,0,0,0,0,0,0,0,0,1.9747,1.9748,0,1.981,1.9811,1.9812,1.977,1.9768,1.9766,1.9764,1.9828,1.9831,1.9835,0,0,0,0,0,0,0,0,0,0,0,0,0,1.959,1.9593,1.9747,1.9748,1.9749,1.981,1.9811,1.9812,1.977,1.9768,1.9766,1.9763,1.9827,1.9831,1.9835,0,0,0,0,0,0,0,0,0,0,0,0,0,1.9656,1.9594,1.9747,1.9735,1.9735,1.981,1.9811,1.9812,1.9771,1.9768,1.9765,1.9762,1.9825,1.9831,1.9836,1.9925,0,0,1.9852,1.9854,0,0,0,0,0,0,0,0,1.9653,1.9662,1.9736,1.9736,1.9736,1.9779,1.9779,1.985,1.9772,1.9757,1.9764,1.9761,1.9814,1.982,1.9838,1.9928,1.9931,1.9852,1.9855,1.9857,1.9859,0,0,0,0,0,0,0,1.9648,1.9659,1.9772,1.9737,1.9737,1.9727,1.9733,1.9792,1.9801,1.9758,1.9755,1.9763,1.9813,1.9833,1.9839,1.9932,1.9852,1.9857,1.986,1.9862,2.01,2.0103,0,0,0,0,0,0,1.9645,1.9656,1.977,1.9774,1.9686,1.9732,1.9739,1.9768,1.98,1.9802,1.9766,1.9761,1.9826,1.9833,1.9841,1.9949,1.9857,1.9862,1.9865,2.0096,2.01,2.0104,0,0,0,0,0,0,1.9641,1.9655,1.9767,1.9714,1.9728,1.9738,1.9771,1.9771,1.9791,1.9806,1.9807,1.9785,1.9824,1.9834,1.9905,1.9951,1.9865,1.9869,2.0093,2.0098,2.0102,2.0166,0,0,0,0,0,0,1.9637,1.9654,1.9688,1.9715,1.9731,1.983,1.9774,1.9774,1.98,1.9795,1.9824,1.9826,1.9822,1.9897,1.991,1.9957,1.9873,2.0089,2.0095,2.0101,2.0159,2.0172,2.0183,0,0,0,0,0,1.9632,1.9703,1.969,1.9704,1.9774,1.9833,1.9842,1.9837,1.9804,1.9838,1.9848,1.9825,1.9944,1.9905,1.9919,1.9968,2.0086,2.0093,2.01,2.0154,2.017,2.0182,0,0,0,0,0,0,1.9681,1.9707,1.9693,1.9775,1.9802,1.9826,1.9869,1.9853,1.989,1.9883,1.9875,1.9881,1.9956,1.9969,1.9925,2.0057,2.0009,2.002,2.0046,2.0061,2.0072,2.0068,1.9878,0,0,0,0,0,1.9702,1.9749,1.9768,1.9839,1.9853,1.9859,1.9885,1.9879,1.9906,1.9917,1.9932,1.996,2.0004,2.0032,2.0073,2.0161,2.0167,2.0201,2.0213,2.0222,2.0231,2.028,2.0296,2.0127,2.0127,2.0127,0,0,1.9745,1.9765,1.9794,1.9849,1.987,1.9918,1.9869,1.9922,1.9958,1.9925,1.9994,2.0006,2.0036,2.0116,2.0152,2.0129,2.0279,2.0231,2.0239,2.0243,2.0289,2.0305,2.0319,2.0132,2.0131,2.0131,0,0,1.9849,1.9868,1.993,1.9951,1.9983,1.9986,2.0001,2.0028,2.0035,2.0103,2.008,2.0122,2.0197,2.022,2.0242,2.0355,2.0335,2.0368,2.0429,2.0477,2.049,2.0502,2.0543,2.0558,2.0377,2.0377,2.0377,0,1.9899,1.9971,1.9963,2.0019,2.0044,2.0017,2.008,2.0101,2.0144,2.0162,2.0136,2.023,2.0248,2.0334,2.0362,2.038,2.0397,2.0365,2.0488,2.05,2.0511,2.0551,2.0566,2.0381,2.0381,2.038,2.038,0,2.0031,2.0081,2.0128,2.0171,2.0201,2.026,2.0262,2.0293,2.0284,2.0291,2.0361,2.0382,2.0427,2.0447,2.0438,2.0532,2.0517,2.0489,2.0442,2.0531,2.0568,2.0583,2.0387,2.0385,2.0384,2.0383,0,0,2.0168,2.0207,2.0225,2.0244,2.0278,2.0316,2.0374,2.0419,2.0447,2.0477,2.0526,2.059,2.0566,2.059,2.0584,2.0625,2.0715,2.0593,2.0593,2.0616,2.0821,2.0842,2.086,2.0701,2.0704,2.0706,2.0819,0,2.0275,2.0377,2.0372,2.0467,2.0514,2.0489,2.0539,2.0565,2.0572,2.0613,2.0621,2.0668,2.0631,2.0646,2.0685,2.0696,2.0756,2.0687,2.0747,2.075,2.0742,2.0879,2.0902,2.1007,2.0833,2.0835,2.0837,0,2.0413,2.045,2.055,2.0577,2.0596,2.0642,2.0683,2.0722,2.0751,2.0754,2.0781,2.0768,2.0827,2.0777,2.0858,2.0812,2.0836,2.0845,2.0848,2.0855,2.08,2.0891,2.104,2.1056,2.086,2.0858,2.0856,0,2.0506,2.0579,2.0649,2.0666,2.0699,2.0732,2.0747,2.0773,2.0801,2.0836,2.0854,2.0896,2.0919,2.0952,2.0951,2.0915,2.1034,2.0983,2.1038,2.1038,2.1065,2.1064,2.1222,2.1078,2.1078,2.1078,2.1077,0,2.0626,2.0689,2.0691,2.0734,2.0804,2.0797,2.0866,2.0878,2.0901,2.0946,2.0926,2.0969,2.0964,2.1007,2.1006,2.1074,2.1084,2.1088,2.1088,2.1091,2.1091,2.1108,2.1101,2.1082,2.1081,2.108,2.1079,0,2.0742,2.0746,2.082,2.0845,2.0853,2.0903,2.0925,2.0966,2.0971,2.1029,2.1042,2.1051,2.11,2.1102,2.1158,2.1158,2.1241,2.1232,2.1232,2.1231,2.1286,2.1281,2.1462,2.1486,2.1325,2.1327,2.1328,0,2.0819,2.0867,2.0898,2.0927,2.0944,2.0991,2.1019,2.1014,2.1045,2.1081,2.1118,2.1166,2.1204,2.1284,2.1296,2.1339,2.1331,2.1391,2.1338,2.134,2.1334,2.1332,2.1338,2.1402,2.1404,2.1406,2.1407,0,2.0957,2.0957,2.0999,2.1042,2.1076,2.1109,2.114,2.1165,2.1164,2.1199,2.125,2.1279,2.1338,2.1386,2.1428,2.1443,2.1426,2.1423,2.1439,2.1444,2.1443,2.1446,2.1262,2.142,2.1418,2.1418,2.1417,2.1416,2.1057,2.1099,2.1127,2.1175,2.1197,2.1227,2.1267,2.1278,2.132,2.1368,2.1362,2.1419,2.1447,2.1502,2.1521,2.1566,2.1545,2.1567,2.1572,2.1578,2.1585,2.1434,2.1573,2.1573,2.1572,2.1572,2.1572,0,2.1196,2.1213,2.1256,2.13,2.1338,2.1318,2.1351,2.1384,2.1434,2.1462,2.15,2.1559,2.1605,2.1621,2.1666,2.1699,2.1692,2.1711,2.1709,2.1713,2.16,2.1583,2.1716,2.1716,2.1716,2.1716,2.1716,2.1716,2.1272,2.1342,2.1345,2.1426,2.1443,2.1499,2.152,2.1547,2.1569,2.1636,2.1675,2.1685,2.1708,2.1755,2.1797,2.18,2.1818,2.1841,2.1841,2.1735,2.1721,2.1707,2.1692,2.1845,2.1845,2.1951,2.1952,2.1953]}]]